Time,TemperatureF,DewpointF,PressureIn,WindDirection,WindDirectionDegrees,WindSpeedMPH,WindSpeedGustMPH,Humidity,HourlyPrecipIn,Conditions,Clouds,dailyrainin,SolarRadiationWatts/m^2,SoftwareType,DateUTC
2013-09-23 00:15:00,43.7,39.2,30.10,SE,125,0.0,1.0,84,0.00,CLR,SKC,0.00,0.0,WeatherDisplay:10.37,2013-09-23 06:15:00,
2013-09-23 00:45:00,45.5,40.6,30.11,West,272,0.0,0.0,83,0.00,CLR,SKC,0.00,0.0,WeatherDisplay:10.37,2013-09-23 06:45:00,
2013-09-23 01:15:00,45.0,40.5,30.12,North,10,0.0,2.0,84,0.00,CLR,SKC,0.00,0.0,WeatherDisplay:10.37,2013-09-23 07:15:00,
2013-09-23 01:45:00,45.0,40.5,30.14,NNE,15,0.0,2.0,84,0.00,CLR,SKC,0.00,0.0,WeatherDisplay:10.37,2013-09-23 07:45:00,
2013-09-23 02:15:00,45.1,40.0,30.15,NNE,15,0.0,1.0,82,0.00,CLR,SKC,0.00,0.0,WeatherDisplay:10.37,2013-09-23 08:15:00,
2013-09-23 02:45:00,44.5,39.0,30.17,NNE,31,0.0,2.0,81,0.00,CLR,SKC,0.00,0.0,WeatherDisplay:10.37,2013-09-23 08:45:00,
2013-09-23 03:15:00,43.5,38.4,30.18,SE,132,1.0,2.0,82,0.00,CLR,SKC,0.00,0.0,WeatherDisplay:10.37,2013-09-23 09:15:00,
2013-09-23 03:45:00,44.2,38.7,30.20,SE,132,0.0,3.0,81,0.00,CLR,SKC,0.00,0.0,WeatherDisplay:10.37,2013-09-23 09:45:00,
2013-09-23 04:15:00,43.1,37.7,30.20,SE,132,2.0,3.0,81,0.00,CLR,SKC,0.00,0.0,WeatherDisplay:10.37,2013-09-23 10:15:00,
2013-09-23 04:45:00,42.5,37.4,30.22,West,268,0.0,3.0,82,0.00,CLR,SKC,0.00,0.0,WeatherDisplay:10.37,2013-09-23 10:45:00,
2013-09-23 05:15:00,42.0,37.2,30.24,North,5,3.0,5.0,83,0.00,CLR,SKC,0.00,0.0,WeatherDisplay:10.37,2013-09-23 11:15:00,
2013-09-23 05:45:00,41.4,37.0,30.25,North,360,0.0,1.0,84,0.00,CLR,SKC,0.00,0.0,WeatherDisplay:10.37,2013-09-23 11:45:00,
2013-09-23 06:15:00,40.4,36.2,30.26,ESE,109,0.0,2.0,85,0.00,CLR,SKC,0.00,0.0,WeatherDisplay:10.37,2013-09-23 12:15:00,
2013-09-23 06:45:00,40.6,36.7,30.27,ESE,118,0.0,1.0,86,0.00,CLR,SKC,0.00,0.0,WeatherDisplay:10.37,2013-09-23 12:45:00,
2013-09-23 07:15:00,41.3,37.1,30.29,ESE,118,0.0,0.0,85,0.00,OVC,SKC,0.00,5.0,WeatherDisplay:10.37,2013-09-23 13:15:00,
2013-09-23 07:45:00,40.7,36.5,30.31,ESE,118,0.0,0.0,85,0.00,BKN,SKC,0.00,16.0,WeatherDisplay:10.37,2013-09-23 13:45:00,
2013-09-23 08:15:00,42.9,38.7,30.33,ESE,118,0.0,1.0,85,0.00,CLR,SKC,0.00,141.0,WeatherDisplay:10.37,2013-09-23 14:15:00,
2013-09-23 08:45:00,46.9,39.7,30.34,NNW,338,0.0,1.0,76,0.00,CLR,SKC,0.00,257.0,WeatherDisplay:10.37,2013-09-23 14:45:00,
2013-09-23 09:15:00,51.4,40.4,30.35,SSW,210,0.0,2.0,66,0.00,CLR,SKC,0.01,350.0,WeatherDisplay:10.37,2013-09-23 15:15:00,
2013-09-23 09:45:00,51.4,42.0,30.36,West,272,0.0,4.0,70,0.00,CLR,SKC,0.01,443.0,WeatherDisplay:10.37,2013-09-23 15:45:00,
2013-09-23 10:15:00,52.8,43.3,30.38,West,266,1.0,5.0,70,0.00,CLR,SKC,0.01,533.0,WeatherDisplay:10.37,2013-09-23 16:15:00,
2013-09-23 10:45:00,55.1,41.9,30.38,West,264,1.0,6.0,61,0.00,CLR,SKC,0.01,610.0,WeatherDisplay:10.37,2013-09-23 16:45:00,
2013-09-23 11:15:00,57.1,41.0,30.38,West,267,1.0,3.0,55,0.00,CLR,SKC,0.01,680.0,WeatherDisplay:10.37,2013-09-23 17:15:00,
2013-09-23 12:15:00,60.0,37.4,30.39,WSW,243,1.0,4.0,43,0.01,RA,SKC,0.02,784.0,WeatherDisplay:10.37,2013-09-23 18:15:00,
2013-09-23 12:45:00,58.8,36.9,30.39,North,9,1.0,3.0,44,0.00,CLR,SKC,0.02,823.0,WeatherDisplay:10.37,2013-09-23 18:45:00,
2013-09-23 13:15:00,59.6,39.3,30.39,East,97,0.0,5.0,47,0.00,CLR,SKC,0.02,802.0,WeatherDisplay:10.37,2013-09-23 19:15:00,
2013-09-23 13:45:00,60.9,37.0,30.39,SW,220,2.0,5.0,41,0.00,CLR,SKC,0.02,791.0,WeatherDisplay:10.37,2013-09-23 19:45:00,
2013-09-23 14:15:00,62.2,38.2,30.37,SW,229,2.0,5.0,41,0.00,CLR,SKC,0.03,768.0,WeatherDisplay:10.37,2013-09-23 20:15:00,
2013-09-23 14:45:00,61.7,36.5,30.36,South,175,1.0,8.0,39,0.00,CLR,SKC,0.03,731.0,WeatherDisplay:10.37,2013-09-23 20:45:00,
2013-09-23 15:15:00,63.9,36.4,30.36,SW,219,1.0,3.0,36,0.00,CLR,SKC,0.03,673.0,WeatherDisplay:10.37,2013-09-23 21:15:00,
2013-09-23 15:45:00,63.3,37.9,30.35,South,182,5.0,13.0,39,0.00,RA,SKC,0.04,610.0,WeatherDisplay:10.37,2013-09-23 21:45:00,
2013-09-23 16:15:00,64.7,37.8,30.34,SSW,197,1.0,3.0,37,0.00,CLR,SKC,0.04,527.0,WeatherDisplay:10.37,2013-09-23 22:15:00,
2013-09-23 16:45:00,64.5,38.3,30.33,WNW,298,2.0,6.0,38,0.00,CLR,SKC,0.04,443.0,WeatherDisplay:10.37,2013-09-23 22:45:00,
2013-09-23 17:15:00,64.4,36.9,30.33,SW,221,2.0,6.0,36,0.00,CLR,SKC,0.04,350.0,WeatherDisplay:10.37,2013-09-23 23:15:00,
2013-09-23 17:46:00,64.8,37.9,30.33,SSE,162,1.0,4.0,37,0.00,CLR,SKC,0.04,237.0,WeatherDisplay:10.37,2013-09-23 23:46:00,
2013-09-23 18:15:00,64.3,37.5,30.33,North,8,0.0,2.0,37,0.00,CLR,SKC,0.04,116.0,WeatherDisplay:10.37,2013-09-24 00:15:00,
2013-09-23 18:45:00,63.8,36.3,30.33,South,176,1.0,4.0,36,0.00,BKN,SKC,0.04,23.0,WeatherDisplay:10.37,2013-09-24 00:45:00,
2013-09-23 19:15:00,61.7,36.5,30.33,ESE,109,0.0,0.0,39,0.00,CLR,SKC,0.05,7.0,WeatherDisplay:10.37,2013-09-24 01:15:00,
2013-09-23 19:45:00,57.5,36.9,30.33,ESE,109,1.0,2.0,46,0.00,OVC,SKC,0.05,0.0,WeatherDisplay:10.37,2013-09-24 01:45:00,
2013-09-23 20:15:00,55.5,36.6,30.34,SE,144,2.0,4.0,49,0.00,CLR,SKC,0.05,0.0,WeatherDisplay:10.37,2013-09-24 02:15:00,
2013-09-23 20:45:00,53.8,36.1,30.36,SE,140,0.0,3.0,51,0.00,CLR,SKC,0.05,0.0,WeatherDisplay:10.37,2013-09-24 02:45:00,
2013-09-23 21:15:00,52.0,35.9,30.37,SE,140,1.0,3.0,54,0.00,CLR,SKC,0.05,0.0,WeatherDisplay:10.37,2013-09-24 03:15:00,
2013-09-23 21:46:00,51.1,35.5,30.38,SE,139,2.0,4.0,55,0.00,CLR,SKC,0.05,0.0,WeatherDisplay:10.37,2013-09-24 03:46:00,
2013-09-23 22:16:00,51.0,35.0,30.39,SE,139,1.0,3.0,54,0.00,CLR,SKC,0.05,0.0,WeatherDisplay:10.37,2013-09-24 04:16:00,
2013-09-23 22:46:00,49.6,35.0,30.40,SE,139,0.0,0.0,57,0.00,CLR,SKC,0.05,0.0,WeatherDisplay:10.37,2013-09-24 04:46:00,
2013-09-23 23:16:00,48.9,34.8,30.40,SE,139,0.0,2.0,58,0.00,CLR,SKC,0.05,0.0,WeatherDisplay:10.37,2013-09-24 05:16:00,
2013-09-23 23:46:00,48.2,34.1,30.40,SE,139,0.0,1.0,58,0.00,CLR,SKC,0.05,0.0,WeatherDisplay:10.37,2013-09-24 05:46:00,